| time (UTC) | temp F | wind direction | speed knots | gust knots | rain 1hr in | rain 24hr in | rain mn in | humidity % | barometer mb |
| 20260503050121 | 45 | 74 | 5.2 | 12.2 | 0.05 | 0.25 | 0.25 | 95 | 1013.2 |
| 20260503044557 | 45 | 84 | 4.3 | 11.3 | 0.06 | 0.24 | 0.24 | 96 | 1013.3 |
| 20260503043124 | 45 | 60 | 3.5 | 11.3 | 0.06 | 0.24 | 0.24 | 96 | 1013.2 |
| 20260503041507 | 45 | 84 | 2.6 | 9.6 | 0.06 | 0.22 | 0.22 | 95 | 1013.2 |
| 20260503040004 | 45 | 63 | 5.2 | 10.4 | 0.05 | 0.20 | 0.20 | 95 | 1013.3 |
| 20260503034545 | 45 | 79 | 5.2 | 12.2 | 0.05 | 0.19 | 0.19 | 95 | 1013.3 |
| 20260503033054 | 46 | 76 | 2.6 | 12.2 | 0.04 | 0.17 | 0.17 | 95 | 1013.3 |
| 20260503031546 | 46 | 80 | 6.1 | 13.0 | 0.04 | 0.17 | 0.17 | 95 | 1013.3 |
| 20260503030110 | 46 | 69 | 2.6 | 11.3 | 0.03 | 0.15 | 0.15 | 95 | 1013.3 |
| 20260503024550 | 46 | 26 | 4.3 | 13.0 | 0.03 | 0.14 | 0.14 | 95 | 1013.3 |
| 20260503023118 | 46 | 78 | 3.5 | 10.4 | 0.04 | 0.13 | 0.13 | 95 | 1013.3 |
| 20260503021518 | 46 | 70 | 3.5 | 7.8 | 0.05 | 0.13 | 0.13 | 95 | 1013.3 |
| 20260503020140 | 46 | 71 | 5.2 | 9.6 | 0.06 | 0.12 | 0.12 | 95 | 1013.3 |
| 20260503014526 | 46 | 105 | 2.6 | 10.4 | 0.06 | 0.10 | 0.11 | 95 | 1013.4 |
| 20260503013055 | 47 | 95 | 3.5 | 8.7 | 0.07 | 0.09 | 0.09 | 94 | 1013.4 |
| 20260503011546 | 47 | 66 | 1.7 | 10.4 | 0.06 | 0.08 | 0.08 | 95 | 1013.5 |
| 20260503010113 | 47 | 59 | 2.6 | 7.0 | 0.06 | 0.06 | 0.06 | 94 | 1013.5 |
| 20260503004556 | 47 | 65 | 1.7 | 5.2 | 0.04 | 0.05 | 0.05 | 94 | 1013.6 |
| 20260503003116 | 47 | 72 | 1.7 | 7.0 | 0.02 | 0.02 | 0.02 | 94 | 1013.7 |
| 20260503001546 | 47 | 75 | 0.9 | 7.8 | 0.02 | 0.02 | 0.02 | 94 | 1013.9 |
| 20260503000149 | 47 | 29 | 2.6 | 10.4 | 0.01 | 0.01 | 0.01 | 94 | 1013.9 |
| 20260502234534 | 47 | 96 | 3.5 | 12.2 | 0.01 | 0.01 | 0.01 | 93 | 1014.0 |
| 20260502233044 | 47 | 38 | 1.7 | 7.8 | 0.01 | 0.01 | 0.01 | 93 | 1014.1 |
| 20260502231542 | 47 | 90 | 2.6 | 7.8 | 0.00 | 0.00 | 0.00 | 93 | 1014.0 |
| 20260502230017 | 47 | 64 | 2.6 | 7.0 | 0.00 | 0.00 | 0.00 | 93 | 1014.0 |
| 20260502224547 | 47 | 67 | 2.6 | 7.8 | 0.00 | 0.00 | 0.00 | 93 | 1014.1 |
| 20260502223110 | 47 | 73 | 1.7 | 8.7 | 0.00 | 0.00 | 0.00 | 93 | 1014.1 |
| 20260502221505 | 47 | 55 | 1.7 | 7.8 | 0.00 | 0.00 | 0.00 | 92 | 1014.1 |
| 20260502220134 | 47 | 71 | 2.6 | 9.6 | 0.00 | 0.00 | 0.00 | 92 | 1014.0 |
| 20260502214524 | 47 | 67 | 3.5 | 11.3 | 0.00 | 0.01 | 0.00 | 92 | 1014.1 |
| 20260502213015 | 47 | 74 | 4.3 | 10.4 | 0.00 | 0.01 | 0.00 | 91 | 1014.1 |
| 20260502211552 | 47 | 69 | 5.2 | 8.7 | 0.00 | 0.01 | 0.00 | 91 | 1014.0 |
| 20260502210134 | 48 | 61 | 4.3 | 10.4 | 0.00 | 0.01 | 0.00 | 91 | 1014.2 |
| 20260502204601 | 48 | 61 | 1.7 | 8.7 | 0.00 | 0.08 | 0.00 | 91 | 1014.2 |
| 20260502203123 | 48 | 74 | 1.7 | 11.3 | 0.00 | 0.08 | 0.00 | 91 | 1014.1 |
| 20260502201519 | 48 | 75 | 3.5 | 10.4 | 0.00 | 0.08 | 0.00 | 90 | 1014.0 |
| 20260502200012 | 48 | 30 | 3.5 | 8.7 | 0.00 | 0.08 | 0.00 | 90 | 1014.1 |
| 20260502194543 | 48 | 57 | 5.2 | 12.2 | 0.00 | 0.08 | 0.00 | 89 | 1013.9 |
| 20260502193114 | 49 | 342 | 3.5 | 10.4 | 0.00 | 0.08 | 0.00 | 89 | 1013.6 |
| 20260502191615 | 50 | 58 | 4.3 | 12.2 | 0.00 | 0.08 | 0.00 | 87 | 1013.4 |
| 20260502190134 | 51 | 24 | 4.3 | 8.7 | 0.00 | 0.08 | 0.00 | 85 | 1013.3 |
| 20260502184522 | 54 | 58 | 2.6 | 7.0 | 0.00 | 0.08 | 0.00 | 80 | 1013.1 |
| 20260502183010 | 55 | 336 | 0.9 | 3.5 | 0.00 | 0.08 | 0.00 | 77 | 1013.0 |
| 20260502181542 | 55 | 313 | 1.7 | 5.2 | 0.00 | 0.08 | 0.00 | 76 | 1012.9 |
| 20260502180122 | 55 | 311 | 1.7 | 4.3 | 0.00 | 0.08 | 0.00 | 75 | 1012.8 |
| 20260502170109 | 56 | 269 | 0.9 | 3.5 | 0.00 | 0.11 | 0.00 | 76 | 1012.8 |
| 20260502163119 | 56 | 250 | 0.9 | 5.2 | 0.00 | 0.19 | 0.00 | 74 | 1012.8 |
| 20260502161513 | 57 | 225 | 1.7 | 7.0 | 0.00 | 0.19 | 0.00 | 72 | 1012.8 |
| 20260502151622 | 58 | 260 | 1.7 | 7.0 | 0.00 | 0.19 | 0.00 | 73 | 1012.9 |
| 20260502150124 | 58 | 243 | 2.6 | 6.1 | 0.00 | 0.19 | 0.00 | 73 | 1013.0 |
| 20260502123119 | 60 | 237 | 0.9 | 7.0 | 0.00 | 0.20 | 0.00 | 74 | 1013.5 |
| 20260502121527 | 61 | 186 | 4.3 | 11.3 | 0.00 | 0.20 | 0.00 | 73 | 1013.3 |
| 20260502120147 | 62 | 232 | 4.3 | 7.0 | 0.00 | 0.20 | 0.00 | 75 | 1013.4 |
| 20260502114513 | 60 | 190 | 4.3 | 8.7 | 0.00 | 0.20 | 0.00 | 73 | 1013.5 |
| 20260502113049 | 59 | 240 | 1.7 | 6.1 | 0.00 | 0.20 | 0.00 | 75 | 1013.5 |
| 20260502111544 | 61 | 253 | 3.5 | 7.8 | 0.00 | 0.20 | 0.00 | 73 | 1013.6 |
| 20260502110012 | 60 | 228 | 4.3 | 9.6 | 0.00 | 0.20 | 0.00 | 74 | 1013.7 |
| 20260502104539 | 59 | 257 | 1.7 | 7.0 | 0.00 | 0.20 | 0.00 | 77 | 1013.8 |
| 20260502103108 | 59 | 244 | 2.6 | 7.8 | 0.00 | 0.20 | 0.00 | 76 | 1013.9 |
| 20260502101605 | 58 | 227 | 1.7 | 7.0 | 0.00 | 0.20 | 0.00 | 80 | 1014.0 |
| 20260502091504 | 56 | 311 | 2.6 | 7.8 | 0.00 | 0.20 | 0.00 | 83 | 1014.1 |
| 20260502070129 | 51 | 323 | 1.7 | 7.0 | 0.00 | 0.20 | 0.00 | 92 | 1014.0 |
| 20260502064604 | 50 | 343 | 2.6 | 5.2 | 0.00 | 0.20 | 0.00 | 93 | 1014.0 |
| 20260502063117 | 49 | 311 | 0.9 | 3.5 | 0.00 | 0.20 | 0.00 | 93 | 1014.0 |
| 20260502061503 | 48 | 303 | 0.9 | 3.5 | 0.00 | 0.20 | 0.00 | 93 | 1013.9 |
| 20260502060139 | 47 | 332 | 1.7 | 2.6 | 0.00 | 0.20 | 0.00 | 92 | 1013.9 |
| 20260502054527 | 47 | 319 | 0.9 | 3.5 | 0.00 | 0.20 | 0.00 | 92 | 1013.9 |
| 20260502053107 | 47 | 341 | 0.9 | 3.5 | 0.00 | 0.20 | 0.00 | 92 | 1013.8 |
| 20260502051545 | 47 | 346 | 0.9 | 2.6 | 0.00 | 0.20 | 0.00 | 91 | 1013.8 |